Location: Moscow
(55.7500°N, 37.5830°E)
Time: 14:38:53
(UTC+03:00)

Vanguard 1 - Pass Details

Date: 07 December 2021
Orbit: 652 x 3830 km, 34.2° (Epoch: 25 January)

Event Time Altitude Azimuth Distance (km) Brightness Sun altitude
Exits shadow 02:49:46 35° 165° (SSE) 4,708 13.2 -47.0°
Drops below altitude 10° 03:01:17 10° 129° (SE) 5,695 14.1 -45.7°
Sets 03:05:23 0° 121° (ESE) 6,332 14.5 -45.2°
